Location: Mainleus
(50.0999°N, 11.3766°E)
Time: 06:32:13
(UTC+00:00)

Daily predictions for brighter satellites

Satellite Brightness Start Highest point End
(mag) Time Altitude Azimuth Time Altitude Azimuth Time Altitude Azimuth
Cosmos 1975 Rocket 3.1 17:46:37 10° N 17:50:55 59° ENE 17:55:11 10° SSE
HJ-1C 3.5 17:49:25 10° SSE 17:52:37 50° ENE 17:55:50 10° N
Cosmos 2227 4.2 17:47:06 10° SSW 17:52:47 67° ESE 17:58:28 10° NNE
Cosmos 1943 3.4 17:48:57 10° NNW 17:54:37 81° WSW 18:00:16 10° SSE
COSMO-SKYMED 1 3.2 17:50:46 10° N 17:55:05 63° WNW 17:59:22 10° SSW
Cosmos 1898 Rocket 3.4 17:50:28 10° SSW 17:55:37 72° ESE 18:00:48 10° NNE
ATLAS CENTAUR R/B 3.5 17:53:17 10° W 17:56:22 22° NNW 17:59:22 10° NNE
OPS 6432 4.5 17:56:28 10° NW 17:59:32 80° SW 18:03:20 10° SE
Cosmos 1867 3.6 17:56:09 10° NW 18:01:40 80° NE 18:07:07 10° SE
Resurs 01 Rocket 3.5 18:05:22 10° E 18:07:43 14° NE 18:10:05 10° NNE
Cosmos 2227 Rocket 4.4 18:03:04 10° W 18:07:45 26° NW 18:12:27 10° NNE
Cosmos 858 Rocket 4.5 18:02:39 10° S 18:07:50 67° ESE 18:13:01 10° NNE
Lacrosse 5 rocket 2.3 18:03:57 10° W 18:08:06 48° NNW 18:12:27 10° NE
NOSS 3-2 (C) 4.4 18:01:12 10° NW 18:08:09 50° NE 18:15:36 12° ESE
CSL-04 Debris 4.3 18:03:10 10° SSE 18:08:34 85° WSW 18:14:00 10° NNW
Sich 1 Rocket 3.7 18:07:38 10° S 18:12:00 53° E 18:16:27 10° NNE
Meteor 1-21 4.4 18:07:24 10° NNW 18:13:02 80° W 18:18:37 10° S
MOS 1 Rocket 3.3 18:09:19 10° NNE 18:13:42 49° E 18:17:54 10° S
Cosmos 807 4.4 18:13:11 10° S 18:16:22 88° ESE 18:20:13 10° N
CSL-04 Rocket 3.9 18:11:36 10° SSE 18:17:01 77° WSW 18:22:34 10° NNW
SJ 16-02 3.0 18:15:58 10° SW 18:20:04 38° WNW 18:24:12 10° N
OBJECT-B 2.4 18:19:21 16° E 18:20:29 19° ENE 18:22:51 10° NNE
Cosmos 1626 4.2 18:19:40 10° NE 18:21:02 12° ENE 18:21:31 11° ENE
Cosmos 1937 Rocket 3.5 18:18:29 10° SSW 18:23:44 89° ESE 18:29:00 10° NNE
NOSS 8 (H) 4.1 18:21:17 10° SW 18:24:24 86° NW 18:27:27 10° NE
Abrixas rocket 1.9 18:27:31 10° WSW 18:30:20 59° S 18:31:44 25° ESE
Okean 2 Rocket 3.2 18:26:11 10° S 18:30:33 53° E 18:34:56 10° NNE
Cosmos 1464 Rocket 3.9 18:26:11 10° S 18:32:13 63° E 18:38:19 10° NNE
Okean 1 Rocket 4.4 18:31:11 18° ESE 18:32:39 21° E 18:36:02 10° NE
NOSS 2-2 (E) 3.1 18:29:17 10° SSW 18:32:45 65° SE 18:36:47 10° NE
SL-08 RB Rocket 3.7 18:28:15 10° SSE 18:32:50 71° ENE 18:37:23 10° N
USA 116 4.2 18:30:51 10° N 18:34:11 56° WNW 18:37:51 10° SSW
Cosmos 1092 Rocket 4.5 18:30:41 10° N 18:36:26 39° ENE 18:40:57 16° SE
ATLAS 2AS CENTAUR R/B 4.1 18:33:42 10° SSE 18:38:50 19° ESE 18:43:57 10° ENE
Cosmos 1300 Rocket 3.5 18:34:49 10° S 18:39:09 62° E 18:43:33 10° NNE
Meteor 2-5 Rocket 4.4 18:34:32 10° N 18:39:41 35° ENE 18:42:58 20° ESE
NOSS 2-2 (D) 3.0 18:37:58 10° SSW 18:41:26 62° SE 18:45:23 10° NE
Resurs 1-3 4.2 18:41:32 22° ESE 18:43:49 37° ENE 18:47:54 10° N
CENTAUR R/B 3.3 18:37:48 10° NW 18:45:36 67° NE 18:51:58 20° ESE
USA 102 3.5 18:39:23 10° SSE 18:38:58 - SSE 18:45:14 35° S
BREEZE-M R/B 4.4 18:36:02 10° SW 18:47:04 48° SSE 18:48:53 26° ESE
Cosmos 2082 Rocket 4.0 18:43:57 10° N 18:47:34 17° NNE 18:50:26 12° ENE
Cosmos 1805 4.2 18:48:59 27° E 18:49:06 27° E 18:52:26 10° NNE
H-2A R/B 2.9 18:45:12 10° S 18:50:00 48° W 18:54:56 10° NNW
Cosmos 1674 3.0 18:46:47 10° N 18:50:32 47° ENE 18:52:10 28° SE
CZ-4 R/B 4.3 18:48:24 10° SW 18:51:30 20° W 18:54:35 10° NW
ATLAS 3B R/B 3.6 18:46:17 10° NW 18:52:30 37° NNE 18:56:56 19° E
Cosmos 1048 Rocket 4.0 18:48:39 10° NNW 18:53:59 81° ENE 18:58:03 18° SSE
Cosmos 1536 Rocket 3.5 18:50:35 10° N 18:55:03 82° ENE 18:58:59 13° SSE
Exosat Rocket 4.1 18:50:07 10° S 18:55:06 35° ESE 18:59:38 10° NE
ISS -3.4 18:52:30 10° SW 18:55:44 42° SSE 18:56:09 40° SE
USA 238 DEB 3.8 18:49:51 10° NW 18:57:05 89° SW 19:02:30 21° SE
USA 238 3.8 18:49:57 10° NW 18:57:11 90° SSW 19:02:34 21° SE
In-Cosmos 22 4.2 18:52:19 10° NNW 18:57:37 76° W 19:02:57 10° S
COSMOS 2406 4.2 18:53:43 10° NNW 18:58:47 32° NE 19:01:06 24° E
CZ-2C R/B 4.5 18:56:57 10° NE 19:00:45 29° E 19:00:45 29° E
Meteor 1-24 Rocket 4.2 18:57:40 10° N 19:02:50 40° ENE 19:04:56 29° ESE
ARGOS 4.0 18:58:19 10° S 19:03:31 51° W 19:08:46 10° NNW
CZ-2C R/B 2.6 18:59:22 10° NNE 19:04:54 72° ESE 19:10:30 10° S
Cosmos 1025 Rocket 3.5 19:00:41 10° NNW 19:05:00 62° W 19:09:20 10° S
SL-14 R/B 4.2 19:04:29 10° N 19:07:48 30° ENE 19:07:48 30° ENE
Cosmos 1707 4.3 19:04:39 10° NNW 19:08:12 36° W 19:11:43 10° SSW
Cosmos 2151 Rocket 3.6 19:07:31 10° S 19:11:59 85° W 19:16:31 10° N
KORONAS-FOTON 3.7 19:08:11 10° N 19:12:08 80° ENE 19:13:36 37° SSE
USA 186 3.3 19:13:03 12° SSW 19:15:35 35° W 19:18:37 10° NNW
CREW DRAGON DEMO-1 DEB 2.8 19:15:05 10° WNW 19:18:00 77° NNW 19:18:00 77° NNW
Ariane Rocket 3.6 19:13:26 10° S 19:18:24 57° WSW 19:23:26 10° NNW
SJ-6B 3.4 19:16:15 18° S 19:18:46 53° W 19:22:29 10° NNW
FREGAT/IRIS 3.7 19:20:39 32° WSW 19:21:04 34° W 19:23:31 10° NNW
Cosmos 1844 3.7 19:15:52 10° S 19:21:25 57° ESE 19:26:57 10° NE
Nadezhda 4 Rocket 4.2 19:16:24 10° NNW 19:22:30 69° W 19:28:33 10° S
Cosmos 1766 3.7 19:23:36 45° ENE 19:23:36 45° ENE 19:26:48 10° NNE
Terra 3.8 19:23:42 14° NE 19:23:42 14° NE 19:26:02 10° NNE
Cosmos 494 Rocket 3.9 19:18:25 10° NNW 19:23:43 88° WSW 19:26:06 34° SSE
Cosmos 2263 Rocket 3.8 19:18:42 10° WSW 19:23:47 35° NW 19:28:55 10° NNE
NOSS 3-2 (A) 4.3 19:17:18 10° NW 19:24:41 66° SW 19:30:19 22° SSE
NOSS 2-2 (C) 3.8 19:22:35 10° WSW 19:26:05 55° NW 19:30:11 10° NE
Cosmos 2034 Rocket 4.2 19:23:32 10° SSW 19:29:54 73° W 19:36:16 10° N
Lacrosse 4 Rocket 3.2 19:27:14 10° N 19:30:07 18° NE 19:30:19 18° NE
Cosmos 1844 Rocket 2.5 19:24:33 10° SSW 19:30:07 79° ESE 19:35:45 10° NNE
GRACE-FO 1 4.5 19:28:27 10° N 19:32:13 88° E 19:32:24 81° SSE
Cosmos 2298 Rocket 4.2 19:27:11 10° SSW 19:32:31 74° WNW 19:37:53 10° NNE
GRACE-FO 2 4.5 19:28:50 10° N 19:32:35 88° ENE 19:32:46 81° S
SPOT 3 Rocket 3.5 19:32:57 34° S 19:35:17 84° WSW 19:40:29 10° NNW
USA 234 3.3 19:37:13 19° ENE 19:42:00 55° SE 19:48:23 10° SW
IGS 5A 4.1 19:44:06 42° NE 19:44:06 42° NE 19:47:24 10° N
Resurs 01 Rocket 1.5 19:42:54 64° SSE 19:43:34 89° W 19:48:04 10° NNW
Lacrosse 5 rocket 2.9 19:44:01 10° WNW 19:48:02 33° N 19:49:28 27° NE
SPOT 5 4.1 19:49:28 31° ENE 19:49:28 31° ENE 19:53:51 10° N
Cosmos 1833 Rocket 3.0 19:45:15 10° NNW 19:50:46 50° NE 19:51:25 48° ENE
OBJECT-B 2.4 19:52:33 31° WSW 19:52:40 31° W 19:55:38 10° NNW
Cosmos 1655 Rocket 4.2 19:50:09 10° N 19:56:14 49° ENE 19:56:42 48° E
Cosmos 1626 2.8 19:53:04 10° NNW 19:56:03 53° NW 19:56:03 53° NW
NOSS 3-2 (C) 4.3 19:52:08 10° NW 19:59:29 63° SW 20:03:03 36° S
ARIANE 5 R/B 2.7 20:01:02 69° N 20:01:02 69° N 20:04:54 10° NNW
Cosmos 1634 Rocket 3.9 19:59:03 29° S 20:02:27 87° W 20:08:42 10° N
BREEZE-M TANK 3.7 19:59:52 10° WSW 20:04:38 38° SW 20:04:38 38° SW
CRYOSAT 2 4.3 20:01:44 10° N 20:06:28 81° NE 20:06:28 81° NE
Landsat 7 3.8 20:09:07 75° NNE 20:09:07 75° NNE 20:13:32 10° NNW
Cosmos 2285 Rocket 4.1 20:03:46 10° SSW 20:10:04 75° WNW 20:16:28 10° NNE
Cosmos 1125 Rocket 4.0 20:04:53 10° SW 20:10:07 59° WNW 20:15:24 10° NNE
Okean 1 Rocket 4.0 20:08:19 29° SW 20:10:14 47° WNW 20:14:37 10° N
ERS-1 Rocket 3.5 20:17:26 47° NNE 20:17:26 47° NNE 20:21:28 10° N
Meteor 2-19 Rocket 4.2 20:16:01 10° N 20:22:12 87° E 20:22:38 78° SSE
ATLAS 2AS CENTAUR R/B 2.9 20:20:44 10° SSW 20:28:38 70° SE 20:36:27 10° NE
Cosmos 2098 Rocket 3.9 20:22:25 10° N 20:29:40 80° E 20:30:00 77° ESE
Cosmos 2180 Rocket 4.4 20:32:04 79° ENE 20:32:04 79° ENE 20:38:17 10° NNE
ISS -0.5 20:29:05 10° W 20:29:08 10° W 20:29:08 10° W
Cosmos 2082 Rocket 2.5 20:27:18 10° NNW 20:32:16 56° NNE 20:32:16 56° NNE
CENTAUR R/B 3.8 20:28:43 10° NW 20:36:20 46° WSW 20:39:10 36° SSW
SPOT 1/Viking Rocket 3.9 20:43:21 60° WNW 20:43:21 60° WNW 20:47:54 10° NNW
COSMOS 2406 3.6 20:37:52 10° NW 20:43:10 57° W 20:43:10 57° W
ATLAS 3B R/B 2.6 20:37:02 10° NW 20:43:54 84° SW 20:44:10 82° S
Cosmos 2279 Rocket 4.2 20:44:35 60° SW 20:45:29 69° WNW 20:51:46 10° N
Spot 2 Rocket 4.3 20:51:06 47° WNW 20:51:06 47° WNW 20:55:24 10° NNW
Terra 3.2 21:02:36 35° N 21:02:36 35° N 21:05:21 10° NNW
Cosmos 2278 Rocket 3.7 21:07:57 27° NNE 21:07:57 27° NNE 21:10:27 10° NNE
Lacrosse 4 Rocket 3.8 21:05:14 10° NW 21:06:37 21° NW 21:06:37 21° NW
Cosmos 909 Rocket 4.2 21:03:47 10° NW 21:09:31 68° WNW 21:09:31 68° WNW
Resurs 01 Rocket 4.4 21:20:28 12° W 21:20:44 12° W 21:22:21 10° WNW
USA 234 3.4 21:24:43 67° N 21:25:10 69° NNW 21:31:39 10° WSW
SPOT 5 4.4 21:28:43 35° NW 21:28:43 35° NW 21:32:12 10° NNW
Lacrosse 5 rocket 3.9 21:23:31 10° NW 21:25:05 21° NW 21:25:05 21° NW
Cosmos 1833 Rocket 4.2 21:29:31 10° NW 21:33:07 29° WNW 21:33:07 29° WNW
NOSS 3-4 (A) 4.4 21:57:18 44° NNW 21:57:18 44° NNW 22:03:01 10° NE
NOSS 3-4 (C) 4.4 21:57:30 44° NNW 21:57:30 44° NNW 22:03:07 10° NE
Cosmos 2082 Rocket 4.3 22:11:59 10° NW 22:14:06 19° WNW 22:14:06 19° WNW
ATLAS 2AS CENTAUR R/B 3.8 22:12:30 10° WSW 22:20:09 47° NNW 22:27:36 10° NE
COSMOS 2455 4.4 22:39:35 30° NNE 22:39:35 30° NNE 22:42:43 10° NNE
Cosmos 2369 Rocket 4.4 22:44:15 17° NE 22:44:15 17° NE 22:45:36 10° NE
NOSS 3-1 (C) 4.4 22:38:09 10° NW 22:44:16 55° N 22:44:16 55° N
Cosmos 2278 Rocket 4.2 22:49:46 23° NW 22:49:46 23° NW 22:54:05 10° NNE
SL-16 R/B 4.5 22:58:38 20° ENE 22:59:04 20° NE 23:03:21 10° N
USA 234 4.4 23:01:31 10° ENE 23:12:14 19° WNW 23:13:59 10° WNW
Cosmos 2227 Rocket 4.2 23:23:14 10° NNW 23:27:35 22° NE 23:27:48 22° NE
CZ-4C R/B 3.8 23:34:17 33° N 23:34:17 33° N 23:38:47 10° NE
